This is the latest recevied weather packets stored in our database for station/object AC8JV. If no packets are shown the sender has not sent any weather packets the latest 10 day(s).
| Time | Temp. | Humidity | Pressure | Rain* | Wind** | Luminosity | Snow |
|---|---|---|---|---|---|---|---|
| 1777309221 | 20° C | 56% | 1013 hPa | 0 mm | - | - | - |
| 1777308601 | 19.44° C | 57% | 1013.5 hPa | 0 mm | - | - | - |
| 1777308012 | 19.44° C | 58% | 1013.9 hPa | 0 mm | - | - | - |
| 1777307400 | 19.44° C | 58% | 1013.9 hPa | 0 mm | - | - | - |
| 1777306797 | 19.44° C | 56% | 1014 hPa | 0 mm | - | - | - |
| 1777306248 | 19.44° C | 58% | 1014.2 hPa | 0 mm | - | - | - |
| 1777305602 | 19.44° C | 60% | 1014.3 hPa | 0 mm | - | - | - |
| 1777305006 | 18.89° C | 61% | 1014.3 hPa | 0 mm | - | - | - |
| 1777304401 | 18.33° C | 61% | 1014.7 hPa | 0 mm | - | - | - |
| 1777303805 | 17.78° C | 61% | 1014.8 hPa | 0 mm | - | - | - |
| 1777303205 | 17.78° C | 64% | 1015 hPa | 0 mm | - | - | - |
| 1777302604 | 17.22° C | 65% | 1014.9 hPa | 0 mm | - | - | - |
| 1777302005 | 17.22° C | 65% | 1015 hPa | 0 mm | - | - | - |
| 1777301413 | 17.22° C | 64% | 1015 hPa | 0 mm | - | - | - |
| 1777300810 | 16.67° C | 66% | 1015 hPa | 0 mm | - | - | - |
| 1777300199 | 16.11° C | 67% | 1014.8 hPa | 0 mm | - | - | - |
| 1777299603 | 15.56° C | 70% | 1014.7 hPa | 0 mm | - | - | - |
| 1777299021 | 15° C | 70% | 1014.8 hPa | 0 mm | - | - | - |
| 1777298423 | 15° C | 69% | 1015.2 hPa | 0 mm | - | - | - |
| 1777297826 | 14.44° C | 72% | 1015.5 hPa | 0 mm | - | - | - |
| 1777297218 | 13.89° C | 73% | 1015.7 hPa | 0 mm | - | - | - |
| 1777296600 | 13.33° C | 75% | 1015.7 hPa | 0 mm | - | - | - |
| 1777296018 | 12.78° C | 76% | 1015.8 hPa | 0 mm | - | - | - |
| 1777295409 | 12.22° C | 78% | 1016 hPa | 0 mm | - | - | - |
| 1777294803 | 11.67° C | 78% | 1016.4 hPa | 0 mm | - | - | - |
* Rain latest hour (hover to see other rain measurements)
** Current wind speed in m/s (hover to see current wind gust speed)